Content
SEND FEEDBACK

Daily
Averages
Monthly
Summary
United States of America

AGAT, GUAM


Home > North America > United States > Guam
Elevation: 364 feet     Latitude: 13 33N     Longitude: 144 50E

WEATHER
 
SELECT A DAY
Number of Records: 214,741;   Date Range: 1/1/95 - 11/20/14
 
SHARE

PRINT THIS DATA

[ ← Previous Day ]
WEATHER ALMANAC - MAY 12, 2013
[ Next Day → ]
[ °C ]   °F
Weather ElementAverageHighLow
Temperature84.3 °F89.1 °F (1:54 pm)78.8 °F (5:44 am)
Dewpoint74.7 °F75.9 °F (1:54 am)73 °F (4:54 pm)
Humidity73.6 %89 % (5:44 am)61 % (2:54 pm)
Barometer29.86 in29.91 in (9:14 am)29.81 in (3:54 pm)
Wind Speed6.7 mph10.4 mph (9:54 am)
Wind Gust16.1 mph (1:54 pm)
Weather ElementAverage
Visibility10 mi
Wind DirectionENE (75.2 °)

Weather ElementTotal
Precipitation0.01 in
Cooling Degree Days19 (Base 65)
Growing Degree Days34 (Base 50)
Averaged from 27 records on May 12, 2013
WEATHER CONDITIONS BREAKOUT
WIND DIRECTION BREAKOUT
WEATHER BY HOUR - MAY 12, 2013
[ °C ]   °F
Local TimeTemperatureDewpointHumidityBarometerVisibilityWind DirectionWind SpeedGust SpeedPrecipitationEventsConditions
1:54 AM81.0 °F75.9 °F85 %29.84 in10.0 miEast (80°)4.6 mphMostly Cloudy
2:54 AM81.0 °F75.9 °F85 %29.83 in10.0 miCalmClear
3:54 AM79.0 °F75.0 °F88 %29.82 in10.0 miNNE (30°)3.5 mphClear
4:54 AM79.0 °F75.0 °F88 %29.83 in10.0 miNE (40°)6.9 mphClear
5:44 AM78.8 °F75.2 °F89 %29.86 in10.0 miCalmPartly Cloudy
5:54 AM79.0 °F75.0 °F88 %29.85 in10.0 miCalmClear
6:54 AM82.0 °F75.9 °F82 %29.86 in10.0 miNE (50°)4.6 mphClear
7:54 AM84.0 °F75.9 °F76 %29.87 in10.0 miEast (90°)4.6 mphClear
8:54 AM86.0 °F75.0 °F70 %29.88 in10.0 miENE (60°)8.1 mphScattered Clouds
9:07 AM86.0 °F75.2 °F70 %29.90 in10.0 miEast (80°)8.1 mphMostly Cloudy
9:14 AM87.8 °F75.2 °F66 %29.91 in10.0 miENE (70°)8.1 mphScattered Clouds
9:54 AM86.0 °F75.0 °F70 %29.89 in10.0 miEast (90°)10.4 mphOvercast
10:29 AM87.8 °F75.2 °F66 %29.91 in10.0 miEast (100°)8.1 mphScattered Clouds
10:54 AM88.0 °F73.9 °F63 %29.88 in10.0 miESE (110°)9.2 mphScattered Clouds
11:54 AM88.0 °F75.0 °F65 %29.87 in10.0 miEast (100°)8.1 mphMostly Cloudy
12:54 PM88.0 °F73.9 °F63 %29.86 in10.0 miSE (130°)8.1 mphScattered Clouds
1:54 PM89.1 °F75.0 °F63 %29.83 in10.0 miESE (110°)8.1 mph16.1 mphScattered Clouds
2:54 PM89.1 °F73.9 °F61 %29.82 in10.0 miEast (90°)8.1 mphScattered Clouds
3:54 PM87.1 °F75.0 °F67 %29.81 in10.0 miEast (90°)9.2 mphScattered Clouds
4:54 PM87.1 °F73.0 °F63 %29.81 in10.0 miEast (90°)10.4 mphPartly Cloudy
5:54 PM86.0 °F73.0 °F65 %29.82 in10.0 miEast (100°)9.2 mphClear
6:54 PM84.0 °F73.0 °F69 %29.84 in10.0 miEast (80°)6.9 mphPartly Cloudy
7:54 PM84.0 °F73.0 °F69 %29.86 in10.0 miEast (80°)5.8 mphPartly Cloudy
8:54 PM84.0 °F73.9 °F72 %29.87 in10.0 miEast (80°)5.8 mphPartly Cloudy
9:54 PM82.9 °F73.9 °F74 %29.89 in10.0 miNE (50°)5.8 mphPartly Cloudy
10:54 PM81.0 °F75.9 °F85 %29.90 in10.0 miENE (70°)9.2 mph0.01 inOvercast
11:54 PM80.1 °F75.0 °F85 %29.90 in10.0 miSSE (160°)10.4 mph0.00 inOvercast
Hourly data recorded from PGUM, located miles away from Agat, Guam







STORIES FROM OUR PARTNERS